| time (UTC) | temp F | wind direction | speed MPH | gust MPH | rain 1hr in | rain 24hr in | rain mn in | humidity % | barometer mb |
| 20260505054541 | 60 | 46 | 19.0 | 25.0 | 0.00 | 0.00 | 0.00 | 44 | 1008.1 |
| 20260505054028 | 60 | 35 | 13.0 | 22.0 | 0.00 | 0.00 | 0.00 | 46 | 1007.8 |
| 20260505053528 | 60 | 49 | 12.0 | 22.0 | 0.00 | 0.00 | 0.00 | 46 | 1007.6 |
| 20260505053047 | 61 | 26 | 13.0 | 22.0 | 0.00 | 0.00 | 0.00 | 45 | 1007.5 |
| 20260505052531 | 61 | 24 | 14.0 | 23.0 | 0.00 | 0.00 | 0.00 | 44 | 1007.4 |
| 20260505052028 | 61 | 29 | 14.0 | 23.0 | 0.00 | 0.00 | 0.00 | 44 | 1007.2 |
| 20260505051606 | 62 | 15 | 11.0 | 22.0 | 0.00 | 0.00 | 0.00 | 43 | 1007.1 |
| 20260505051033 | 62 | 42 | 13.0 | 23.0 | 0.00 | 0.00 | 0.00 | 43 | 1007.1 |
| 20260505050531 | 62 | 26 | 14.0 | 23.0 | 0.00 | 0.00 | 0.00 | 43 | 1006.9 |
| 20260505041543 | 67 | 40 | 13.0 | 23.0 | 0.00 | 0.00 | 0.00 | 41 | 1005.9 |
| 20260505041030 | 67 | 38 | 14.0 | 21.0 | 0.00 | 0.00 | 0.00 | 41 | 1005.8 |
| 20260505040530 | 67 | 35 | 9.0 | 17.0 | 0.00 | 0.00 | 0.00 | 42 | 1006.0 |
| 20260505040039 | 67 | 14 | 7.0 | 18.0 | 0.00 | 0.00 | 0.00 | 43 | 1005.9 |
| 20260505035529 | 67 | 24 | 9.0 | 19.0 | 0.00 | 0.00 | 0.00 | 42 | 1005.9 |
| 20260505035029 | 68 | 33 | 10.0 | 19.0 | 0.00 | 0.00 | 0.00 | 41 | 1005.7 |
| 20260505034543 | 68 | 33 | 11.0 | 18.0 | 0.00 | 0.00 | 0.00 | 41 | 1005.7 |
| 20260505034029 | 68 | 5 | 11.0 | 18.0 | 0.00 | 0.00 | 0.00 | 41 | 1005.5 |
| 20260505033533 | 69 | 9 | 11.0 | 18.0 | 0.00 | 0.00 | 0.00 | 41 | 1005.6 |
| 20260505033041 | 69 | 355 | 11.0 | 18.0 | 0.00 | 0.00 | 0.00 | 41 | 1005.5 |
| 20260505032529 | 70 | 13 | 8.0 | 21.0 | 0.00 | 0.00 | 0.00 | 41 | 1005.3 |
| 20260505032029 | 70 | 355 | 10.0 | 21.0 | 0.00 | 0.00 | 0.00 | 40 | 1005.0 |
| 20260505031539 | 70 | 28 | 11.0 | 21.0 | 0.00 | 0.00 | 0.00 | 39 | 1004.8 |
| 20260505031029 | 70 | 29 | 12.0 | 20.0 | 0.00 | 0.00 | 0.00 | 39 | 1004.8 |
| 20260505030529 | 71 | 22 | 11.0 | 17.0 | 0.00 | 0.00 | 0.00 | 40 | 1004.8 |
| 20260505030044 | 71 | 48 | 7.0 | 17.0 | 0.00 | 0.00 | 0.00 | 42 | 1004.7 |
| 20260505025530 | 71 | 42 | 9.0 | 17.0 | 0.00 | 0.00 | 0.00 | 42 | 1004.6 |
| 20260505025028 | 71 | 34 | 8.0 | 13.0 | 0.00 | 0.00 | 0.00 | 41 | 1004.4 |
| 20260505024548 | 72 | 40 | 8.0 | 16.0 | 0.00 | 0.00 | 0.00 | 42 | 1004.3 |
| 20260505024029 | 72 | 32 | 10.0 | 16.0 | 0.00 | 0.00 | 0.00 | 42 | 1004.2 |
| 20260505023529 | 71 | 24 | 10.0 | 16.0 | 0.00 | 0.00 | 0.00 | 44 | 1004.2 |
| 20260505023044 | 71 | 5 | 10.0 | 14.0 | 0.00 | 0.00 | 0.00 | 49 | 1004.0 |
| 20260505022531 | 71 | 336 | 7.0 | 13.0 | 0.00 | 0.00 | 0.00 | 56 | 1003.9 |
| 20260505022029 | 70 | 23 | 8.0 | 11.0 | 0.00 | 0.00 | 0.00 | 61 | 1003.8 |
| 20260505021549 | 70 | 11 | 8.0 | 13.0 | 0.00 | 0.00 | 0.00 | 65 | 1003.7 |
| 20260505021029 | 69 | 360 | 5.0 | 13.0 | 0.00 | 0.00 | 0.00 | 67 | 1003.5 |
| 20260505020529 | 70 | 344 | 3.0 | 5.0 | 0.00 | 0.00 | 0.00 | 65 | 1003.1 |
| 20260505020037 | 71 | 229 | 0.0 | 2.0 | 0.00 | 0.00 | 0.00 | 62 | 1002.8 |
| 20260505015530 | 72 | 0 | 0.0 | 2.0 | 0.00 | 0.00 | 0.00 | 61 | 1002.9 |
| 20260505015029 | 72 | 0 | 0.0 | 2.0 | 0.00 | 0.00 | 0.00 | 60 | 1002.7 |
| 20260505014537 | 72 | 228 | 1.0 | 2.0 | 0.00 | 0.00 | 0.00 | 60 | 1002.7 |
| 20260505014031 | 72 | 228 | 1.0 | 3.0 | 0.00 | 0.00 | 0.00 | 60 | 1002.6 |
| 20260505013529 | 72 | 228 | 1.0 | 3.0 | 0.00 | 0.00 | 0.00 | 60 | 1002.5 |
| 20260505013042 | 72 | 228 | 1.0 | 4.0 | 0.00 | 0.00 | 0.00 | 60 | 1002.5 |
| 20260505012529 | 73 | 228 | 2.0 | 4.0 | 0.00 | 0.00 | 0.00 | 59 | 1002.5 |
| 20260505012031 | 73 | 228 | 3.0 | 4.0 | 0.00 | 0.00 | 0.00 | 59 | 1002.5 |
| 20260505011545 | 72 | 228 | 3.0 | 4.0 | 0.00 | 0.00 | 0.00 | 59 | 1002.4 |
| 20260505011029 | 73 | 228 | 2.0 | 4.0 | 0.00 | 0.00 | 0.00 | 60 | 1002.3 |
| 20260505010529 | 73 | 228 | 3.0 | 4.0 | 0.00 | 0.00 | 0.00 | 60 | 1002.2 |
| 20260505010043 | 73 | 229 | 2.0 | 5.0 | 0.00 | 0.00 | 0.00 | 58 | 1002.1 |
| 20260505005529 | 74 | 229 | 3.0 | 5.0 | 0.00 | 0.00 | 0.00 | 58 | 1002.2 |
| 20260505005029 | 73 | 229 | 3.0 | 4.0 | 0.00 | 0.00 | 0.00 | 58 | 1002.1 |
| 20260505004544 | 74 | 229 | 2.0 | 4.0 | 0.00 | 0.00 | 0.00 | 60 | 1002.2 |
| 20260505004028 | 74 | 228 | 2.0 | 5.0 | 0.00 | 0.00 | 0.00 | 58 | 1002.2 |
| 20260505003528 | 75 | 227 | 2.0 | 7.0 | 0.00 | 0.00 | 0.00 | 57 | 1002.2 |
| 20260505003043 | 76 | 226 | 3.0 | 7.0 | 0.00 | 0.00 | 0.00 | 54 | 1002.1 |
| 20260505002528 | 76 | 222 | 5.0 | 8.0 | 0.00 | 0.00 | 0.00 | 53 | 1002.1 |
| 20260505002029 | 76 | 216 | 5.0 | 8.0 | 0.00 | 0.00 | 0.00 | 53 | 1002.1 |
| 20260505001539 | 77 | 225 | 6.0 | 9.0 | 0.00 | 0.00 | 0.00 | 51 | 1002.1 |
| 20260505001029 | 77 | 218 | 6.0 | 9.0 | 0.00 | 0.00 | 0.00 | 51 | 1002.2 |
| 20260505000530 | 78 | 221 | 5.0 | 9.0 | 0.00 | 0.00 | 0.00 | 50 | 1002.1 |
| 20260505000047 | 78 | 205 | 5.0 | 8.0 | 0.00 | 0.00 | 0.00 | 49 | 1002.1 |
| 20260504235529 | 78 | 198 | 5.0 | 9.0 | 0.00 | 0.00 | 0.00 | 49 | 1002.2 |
| 20260504235031 | 78 | 211 | 4.0 | 9.0 | 0.00 | 0.00 | 0.00 | 48 | 1002.2 |
| 20260504234542 | 79 | 221 | 5.0 | 9.0 | 0.00 | 0.00 | 0.00 | 48 | 1002.2 |
| 20260504234029 | 79 | 209 | 4.0 | 7.0 | 0.00 | 0.00 | 0.00 | 49 | 1002.2 |
| 20260504233531 | 79 | 201 | 4.0 | 11.0 | 0.00 | 0.00 | 0.00 | 50 | 1002.1 |
| 20260504233101 | 80 | 207 | 5.0 | 11.0 | 0.00 | 0.00 | 0.00 | 48 | 1002.2 |
| 20260504232529 | 80 | 196 | 5.0 | 9.0 | 0.00 | 0.00 | 0.00 | 48 | 1002.1 |
| 20260504232032 | 81 | 213 | 6.0 | 9.0 | 0.00 | 0.00 | 0.00 | 47 | 1002.1 |
| 20260504231546 | 80 | 197 | 5.0 | 9.0 | 0.00 | 0.00 | 0.00 | 48 | 1002.1 |
| 20260504231028 | 81 | 205 | 4.0 | 8.0 | 0.00 | 0.00 | 0.00 | 47 | 1002.1 |
| 20260504230528 | 81 | 203 | 5.0 | 8.0 | 0.00 | 0.00 | 0.00 | 49 | 1002.1 |
| 20260504230053 | 81 | 217 | 4.0 | 10.0 | 0.00 | 0.00 | 0.00 | 49 | 1002.1 |
| 20260504225529 | 80 | 223 | 6.0 | 13.0 | 0.00 | 0.00 | 0.00 | 49 | 1002.0 |
| 20260504225032 | 80 | 219 | 6.0 | 13.0 | 0.00 | 0.00 | 0.00 | 47 | 1002.0 |
| 20260504224540 | 80 | 221 | 5.0 | 12.0 | 0.00 | 0.00 | 0.00 | 47 | 1002.1 |
| 20260504224029 | 80 | 241 | 7.0 | 12.0 | 0.00 | 0.00 | 0.00 | 45 | 1002.0 |
| 20260504223530 | 80 | 225 | 6.0 | 11.0 | 0.00 | 0.00 | 0.00 | 46 | 1001.9 |
| 20260504223047 | 80 | 196 | 7.0 | 11.0 | 0.00 | 0.00 | 0.00 | 47 | 1001.9 |
| 20260504222528 | 80 | 204 | 7.0 | 15.0 | 0.00 | 0.00 | 0.00 | 47 | 1002.0 |
| 20260504222029 | 80 | 207 | 9.0 | 15.0 | 0.00 | 0.00 | 0.00 | 47 | 1001.9 |
| 20260504221539 | 80 | 204 | 10.0 | 15.0 | 0.00 | 0.00 | 0.00 | 43 | 1001.9 |
| 20260504221029 | 80 | 212 | 9.0 | 15.0 | 0.00 | 0.00 | 0.00 | 46 | 1001.9 |
| 20260504220529 | 81 | 210 | 9.0 | 14.0 | 0.00 | 0.00 | 0.00 | 44 | 1001.9 |
| 20260504220040 | 81 | 197 | 7.0 | 14.0 | 0.00 | 0.00 | 0.00 | 48 | 1002.0 |
| 20260504215529 | 81 | 232 | 10.0 | 14.0 | 0.00 | 0.00 | 0.00 | 44 | 1002.0 |
| 20260504215028 | 81 | 227 | 8.0 | 16.0 | 0.00 | 0.00 | 0.00 | 42 | 1002.1 |
| 20260504214548 | 81 | 228 | 8.0 | 16.0 | 0.00 | 0.00 | 0.00 | 44 | 1002.1 |
| 20260504214032 | 82 | 223 | 9.0 | 15.0 | 0.00 | 0.00 | 0.00 | 44 | 1002.1 |
| 20260504213529 | 82 | 229 | 10.0 | 15.0 | 0.00 | 0.00 | 0.00 | 43 | 1002.1 |
| 20260504213044 | 82 | 208 | 9.0 | 16.0 | 0.00 | 0.00 | 0.00 | 43 | 1002.2 |
| 20260504212529 | 82 | 200 | 8.0 | 16.0 | 0.00 | 0.00 | 0.00 | 43 | 1002.2 |
| 20260504212030 | 82 | 214 | 10.0 | 16.0 | 0.00 | 0.00 | 0.00 | 44 | 1002.3 |
| 20260504211541 | 82 | 236 | 9.0 | 15.0 | 0.00 | 0.00 | 0.00 | 41 | 1002.3 |
| 20260504211029 | 82 | 229 | 6.0 | 15.0 | 0.00 | 0.00 | 0.00 | 40 | 1002.3 |
| 20260504210529 | 82 | 218 | 9.0 | 15.0 | 0.00 | 0.00 | 0.00 | 37 | 1002.4 |
| 20260504210044 | 82 | 224 | 9.0 | 15.0 | 0.00 | 0.00 | 0.00 | 38 | 1002.4 |
| 20260504205532 | 83 | 226 | 7.0 | 14.0 | 0.00 | 0.00 | 0.00 | 39 | 1002.4 |
| 20260504205032 | 82 | 218 | 9.0 | 14.0 | 0.00 | 0.00 | 0.00 | 37 | 1002.4 |
| 20260504204546 | 82 | 213 | 8.0 | 13.0 | 0.00 | 0.00 | 0.00 | 41 | 1002.5 |
| 20260504204033 | 82 | 219 | 6.0 | 14.0 | 0.00 | 0.00 | 0.00 | 42 | 1002.5 |
| 20260504203532 | 82 | 200 | 8.0 | 15.0 | 0.00 | 0.00 | 0.00 | 43 | 1002.6 |
| 20260504203053 | 82 | 213 | 4.0 | 15.0 | 0.00 | 0.00 | 0.00 | 40 | 1002.7 |
| 20260504202530 | 82 | 210 | 9.0 | 14.0 | 0.00 | 0.00 | 0.00 | 41 | 1002.7 |
| 20260504202030 | 83 | 253 | 3.0 | 14.0 | 0.00 | 0.00 | 0.00 | 44 | 1002.7 |
| 20260504201541 | 83 | 256 | 6.0 | 14.0 | 0.00 | 0.00 | 0.00 | 42 | 1002.7 |
| 20260504201029 | 83 | 237 | 7.0 | 14.0 | 0.00 | 0.00 | 0.00 | 45 | 1002.7 |
| 20260504200532 | 83 | 240 | 2.0 | 14.0 | 0.00 | 0.00 | 0.00 | 44 | 1002.8 |
| 20260504200044 | 82 | 263 | 8.0 | 13.0 | 0.00 | 0.00 | 0.00 | 41 | 1002.7 |
| 20260504195532 | 82 | 175 | 5.0 | 12.0 | 0.00 | 0.00 | 0.00 | 43 | 1002.7 |
| 20260504195029 | 82 | 250 | 5.0 | 14.0 | 0.00 | 0.00 | 0.00 | 42 | 1002.8 |
| 20260504194540 | 82 | 220 | 8.0 | 14.0 | 0.00 | 0.00 | 0.00 | 43 | 1002.9 |
| 20260504194029 | 82 | 203 | 6.0 | 10.0 | 0.00 | 0.00 | 0.00 | 43 | 1002.9 |
| 20260504193533 | 82 | 244 | 3.0 | 9.0 | 0.00 | 0.00 | 0.00 | 40 | 1002.9 |
| 20260504193039 | 82 | 265 | 5.0 | 10.0 | 0.00 | 0.00 | 0.00 | 46 | 1002.9 |
| 20260504192531 | 82 | 250 | 5.0 | 12.0 | 0.00 | 0.00 | 0.00 | 43 | 1003.0 |
| 20260504192028 | 82 | 248 | 7.0 | 13.0 | 0.00 | 0.00 | 0.00 | 44 | 1003.0 |
| 20260504191543 | 82 | 268 | 2.0 | 13.0 | 0.00 | 0.00 | 0.00 | 46 | 1003.0 |
| 20260504191032 | 82 | 205 | 8.0 | 11.0 | 0.00 | 0.00 | 0.00 | 40 | 1003.0 |
| 20260504190532 | 81 | 187 | 6.0 | 12.0 | 0.00 | 0.00 | 0.00 | 42 | 1003.0 |
| 20260504190107 | 82 | 214 | 6.0 | 12.0 | 0.00 | 0.00 | 0.00 | 46 | 1003.1 |
| 20260504185532 | 81 | 267 | 3.0 | 9.0 | 0.00 | 0.00 | 0.00 | 42 | 1003.0 |
| 20260504185033 | 81 | 200 | 2.0 | 10.0 | 0.00 | 0.00 | 0.00 | 44 | 1003.0 |
| 20260504184541 | 81 | 222 | 4.0 | 12.0 | 0.00 | 0.00 | 0.00 | 46 | 1003.1 |
| 20260504184029 | 81 | 242 | 2.0 | 15.0 | 0.00 | 0.00 | 0.00 | 45 | 1003.0 |
| 20260504183529 | 81 | 273 | 6.0 | 15.0 | 0.00 | 0.00 | 0.00 | 45 | 1003.2 |
| 20260504183040 | 81 | 247 | 9.0 | 15.0 | 0.00 | 0.00 | 0.00 | 46 | 1003.1 |
| 20260504182532 | 80 | 193 | 6.0 | 11.0 | 0.00 | 0.00 | 0.00 | 47 | 1003.1 |
| 20260504182033 | 80 | 211 | 4.0 | 12.0 | 0.00 | 0.00 | 0.00 | 45 | 1003.1 |
| 20260504181542 | 80 | 274 | 7.0 | 12.0 | 0.00 | 0.00 | 0.00 | 47 | 1003.2 |
| 20260504181030 | 79 | 234 | 7.0 | 12.0 | 0.00 | 0.00 | 0.00 | 47 | 1003.2 |
| 20260504180533 | 79 | 233 | 7.0 | 12.0 | 0.00 | 0.00 | 0.00 | 46 | 1003.2 |
| 20260504180044 | 79 | 255 | 7.0 | 12.0 | 0.00 | 0.00 | 0.00 | 47 | 1003.2 |
| 20260504175528 | 79 | 264 | 5.0 | 11.0 | 0.00 | 0.00 | 0.00 | 51 | 1003.2 |
| 20260504175032 | 79 | 229 | 5.0 | 15.0 | 0.00 | 0.00 | 0.00 | 49 | 1003.3 |
| 20260504174544 | 78 | 231 | 8.0 | 15.0 | 0.00 | 0.00 | 0.00 | 49 | 1003.4 |
| 20260504174033 | 78 | 246 | 6.0 | 11.0 | 0.00 | 0.00 | 0.00 | 50 | 1003.4 |
| 20260504173531 | 78 | 223 | 8.0 | 13.0 | 0.00 | 0.00 | 0.00 | 48 | 1003.5 |
| 20260504173040 | 77 | 199 | 7.0 | 13.0 | 0.00 | 0.00 | 0.00 | 50 | 1003.5 |
| 20260504172530 | 77 | 244 | 7.0 | 13.0 | 0.00 | 0.00 | 0.00 | 49 | 1003.5 |
| 20260504172030 | 77 | 246 | 6.0 | 13.0 | 0.00 | 0.00 | 0.00 | 53 | 1003.5 |
| 20260504171546 | 77 | 236 | 8.0 | 13.0 | 0.00 | 0.00 | 0.00 | 53 | 1003.6 |
| 20260504171031 | 76 | 241 | 5.0 | 12.0 | 0.00 | 0.00 | 0.00 | 53 | 1003.7 |
| 20260504170528 | 76 | 225 | 8.0 | 12.0 | 0.00 | 0.00 | 0.00 | 52 | 1003.6 |
| 20260504151032 | 70 | 247 | 8.0 | 17.0 | 0.00 | 0.00 | 0.00 | 58 | 1004.0 |
| 20260504150534 | 70 | 257 | 11.0 | 18.0 | 0.00 | 0.00 | 0.00 | 58 | 1004.1 |
| 20260504141030 | 67 | 242 | 8.0 | 20.0 | 0.00 | 0.00 | 0.00 | 61 | 1004.2 |
| 20260504140529 | 67 | 246 | 11.0 | 20.0 | 0.00 | 0.00 | 0.00 | 60 | 1004.1 |
| 20260504130533 | 63 | 198 | 4.0 | 9.0 | 0.00 | 0.00 | 0.00 | 69 | 1004.0 |
| 20260504110535 | 56 | 189 | 4.0 | 7.0 | 0.00 | 0.00 | 0.00 | 78 | 1003.4 |
| 20260504100529 | 55 | 181 | 5.0 | 6.0 | 0.00 | 0.00 | 0.00 | 77 | 1004.1 |
| 20260504081545 | 60 | 182 | 4.0 | 5.0 | 0.00 | 0.00 | 0.00 | 66 | 1005.4 |
| 20260504081030 | 61 | 182 | 3.0 | 5.0 | 0.00 | 0.00 | 0.00 | 65 | 1005.4 |
| 20260504080530 | 61 | 182 | 1.0 | 5.0 | 0.00 | 0.00 | 0.00 | 65 | 1005.6 |